Wind_Speed
102 98 98 97 93 92 86 82 79 77 69 67 62 59 56 53 51 49 48 46 44 45 42 41 40 41 44 46 49 44 43 43 45 46 48 50 52 54 57 59 61 61 63 67
106 100 99 98 94 89 85 80 75 73 71 67 66 60 58 52 50 49 50 49 47 45 45 45 45 46 46 45 45 44 44 47 49 50 51 51 54 56 58 59 62 65 68 71
104 101 97 97 96 91 87 82 79 72 75 71 65 65 59 53 50 47 47 47 46 47 47 49 52 53 50 50 50 49 51 52 51 53 54 56 59 60 63 65 67 70 73 76
99 100 95 95 95 90 87 84 77 71 76 71 68 62 60 55 52 48 47 47 48 49 51 55 57 51 49 50 50 50 51 53 55 57 59 61 63 66 68 70 73 76 78 81
89 100 96 93 91 88 87 82 75 76 77 71 68 66 63 55 51 51 50 53 55 55 57 60 56 51 51 52 53 55 56 57 59 61 63 65 68 70 73 75 78 80 82 84
76 91 94 90 90 88 84 81 77 74 72 70 70 66 65 57 57 55 54 52 52 52 54 53 52 52 54 55 56 58 59 61 63 64 66 69 71 74 77 79 81 83 85 87
60 79 90 91 86 87 85 81 78 74 68 61 66 66 64 57 60 58 57 56 55 54 54 53 53 54 56 57 60 61 63 66 68 70 72 74 76 78 80 82 84 88 87 83
47 66 82 90 85 83 82 79 75 70 63 57 62 61 62 62 64 62 61 59 58 58 57 56 57 58 60 63 65 67 69 71 72 73 74 76 78 81 84 87 90 87 83 85
36 54 70 84 85 80 79 77 73 69 62 59 57 64 68 66 66 65 64 63 63 62 61 61 61 63 65 66 67 67 68 70 72 75 77 80 83 86 90 88 83 85 81 72
27 43 60 75 83 77 75 77 72 68 62 59 53 59 67 68 68 67 66 65 64 63 64 65 67 69 68 68 69 71 74 76 79 81 83 86 90 89 84 85 85 77 73 73
15 33 51 67 79 75 71 73 70 67 63 60 57 54 62 68 70 69 68 67 66 66 66 68 69 69 71 72 74 77 80 82 84 87 90 90 85 86 82 75 73 75 76 79
6 20 39 59 71 72 67 69 69 65 62 59 60 56 57 60 66 69 69 68 68 69 70 71 72 73 74 78 81 83 85 88 91 89 85 86 85 74 73 76 77 81 84 87
11 9 27 50 65 68 64 63 65 63 61 59 55 58 59 58 59 63 68 70 71 72 74 76 77 79 81 84 86 89 91 86 84 87 84 75 74 76 78 82 85 88 92 96
18 7 15 35 56 63 58 56 58 58 57 60 56 57 60 58 58 60 66 71 74 77 78 79 82 84 86 88 87 82 84 86 79 72 73 76 79 82 86 89 91 95 102 103
18 11 6 25 46 58 55 52 54 56 57 55 62 60 58 60 59 60 64 69 74 78 80 82 82 79 78 81 84 80 70 70 74 78 79 82 85 89 92 95 100 104 109 112
22 12 7 15 29 48 53 52 51 52 54 58 58 62 60 61 61 61 62 65 67 70 73 76 79 78 73 66 65 68 70 72 76 80 85 89 94 97 101 105 109 114 117 120
9 9 10 5 14 29 41 48 51 53 56 58 58 62 63 63 65 65 65 64 61 57 54 56 59 61 63 67 71 73 76 80 84 88 93 98 101 104 108 111 115 121 125 129
5 5 5 6 8 11 15 23 30 35 38 40 41 41 42 41 40 42 45 49 51 54 57 60 62 66 70 73 77 81 85 89 92 97 104 107 109 111 114 118 124 127 132 137
19 17 16 18 19 22 26 29 30 31 33 35 38 43 45 46 49 50 54 56 59 62 65 68 71 75 79 83 87 90 92 96 101 107 109 111 114 117 122 126 130 136 139 140
26 28 28 30 28 29 35 38 39 40 40 47 48 50 53 56 57 61 62 64 68 71 74 76 78 80 84 89 94 98 101 103 105 109 112 116 120 125 129 134 137 140 142 143
33 33 35 37 35 38 44 45 48 50 51 52 54 56 59 61 63 65 68 70 73 76 80 83 87 90 93 93 95 100 104 107 111 114 118 123 128 131 134 137 141 145 147 148
45 45 46 45 44 46 48 49 50 52 54 58 62 64 67 69 72 74 78 81 83 85 86 88 90 92 95 99 102 106 110 112 114 118 122 126 130 135 139 143 145 148 152 152
52 54 53 54 53 53 51 53 56 60 62 65 67 69 72 73 75 78 81 84 86 88 91 93 97 101 104 107 109 112 115 117 121 124 127 131 134 138 141 142 143 146 147 139
63 64 65 67 66 64 63 64 65 65 67 70 75 78 80 82 84 87 89 91 93 96 99 105 108 110 111 114 115 117 121 123 126 126 130 133 137 141 143 144 140 139 133 126
66 73 76 74 76 75 75 76 76 78 81 81 81 82 84 88 90 92 95 97 99 101 105 104 108 112 115 116 118 119 120 124 128 134 139 142 140 141 139 140 132 125 123 116
77 85 75 77 81 82 82 85 85 85 86 89 92 95 97 99 100 100 98 96 98 98 104 106 104 105 105 111 116 120 122 125 129 135 140 142 139 135 128 123 120 114 110 105
Wind_Direction
207 207 208 210 211 211 211 212 213 213 216 218 219 220 223 226 230 230 231 235 241 245 249 256 261 261 263 267 268 269 273 276 280 283 283 283 284 285 286 289 291 296 299 299
206 208 207 209 210 211 212 213 214 212 216 217 219 220 223 225 230 231 233 235 240 245 249 254 259 263 265 267 268 273 278 279 281 281 282 284 286 288 291 294 297 298 299 302
206 207 207 207 211 210 211 212 212 212 216 217 219 220 223 225 229 234 237 237 243 247 250 254 258 259 261 265 268 272 275 278 281 283 284 287 291 293 294 294 297 298 300 300
206 207 207 207 209 210 210 211 213 213 215 218 220 223 225 226 228 233 239 242 246 250 250 254 259 262 266 271 275 277 279 282 282 284 285 287 290 292 294 296 296 297 299 300
206 207 207 206 208 210 211 212 211 213 216 218 221 224 229 230 232 235 236 242 247 250 252 254 258 262 268 273 277 280 282 283 284 285 286 289 290 292 293 294 296 298 299 301
208 208 207 207 207 209 210 211 211 214 217 218 220 224 230 229 233 236 240 242 247 250 251 255 260 266 271 275 278 280 281 284 287 289 290 291 291 292 293 295 296 299 300 302
205 206 206 207 207 207 209 211 212 214 217 218 222 225 229 230 236 239 243 246 250 254 257 261 265 269 273 277 280 282 284 286 287 289 289 290 291 292 294 295 297 299 301 300
203 202 203 206 206 208 209 211 213 214 216 219 224 226 228 232 236 240 244 248 252 255 258 262 267 271 275 279 281 282 284 285 286 288 289 289 291 293 295 296 298 299 298 299
196 199 200 202 204 205 208 210 213 214 215 219 223 224 227 233 237 241 245 249 253 257 262 265 269 272 276 279 281 282 284 285 287 288 289 291 293 294 296 298 296 297 297 297
187 193 197 199 202 203 205 209 212 214 216 219 224 227 229 234 239 243 247 251 256 261 265 268 272 274 276 277 280 282 285 287 288 290 291 292 294 295 294 294 295 294 293 295
173 189 194 197 200 202 206 209 212 215 217 220 224 230 234 236 241 245 249 254 259 263 267 270 272 274 276 279 282 284 285 287 289 290 292 293 292 292 293 291 291 292 293 295
112 185 193 196 199 201 205 208 211 215 219 224 228 233 241 244 245 248 252 256 261 265 268 271 273 276 279 280 282 284 286 287 289 291 290 290 292 289 288 291 294 296 297 297
67 169 194 196 198 201 205 209 213 218 222 228 234 238 244 250 254 255 255 258 262 265 268 272 275 277 279 281 283 284 287 288 287 289 290 287 289 292 293 294 295 296 296 296
53 79 185 196 199 202 207 212 217 221 227 232 238 243 248 254 259 261 260 260 262 265 269 272 274 276 279 281 283 283 283 286 287 286 289 292 293 293 292 293 293 293 295 295
53 75 157 196 200 203 208 215 220 225 231 236 242 247 250 256 261 265 264 265 266 268 270 273 276 277 278 279 281 284 283 284 288 290 291 290 290 291 291 291 291 293 294 294
43 65 125 193 205 210 214 221 226 231 237 242 248 253 255 259 265 267 268 268 270 271 272 273 274 276 279 281 283 287 288 288 289 290 290 290 289 289 290 291 291 293 294 294
28 53 70 133 202 217 224 230 236 240 244 248 252 256 260 262 266 268 268 270 271 271 273 277 280 283 284 287 286 287 288 288 288 289 291 292 292 291 292 291 291 291 293 295
263 240 209 224 205 213 215 227 235 242 247 251 254 257 260 261 265 267 266 267 269 277 281 282 284 284 283 282 282 283 285 287 288 290 293 294 293 292 292 292 292 293 295 295
274 260 258 252 243 249 244 240 241 244 250 252 253 255 260 266 267 270 271 271 272 274 275 277 280 281 283 284 285 286 286 287 288 291 291 291 291 292 292 292 293 293 294 295
289 281 274 267 261 256 263 264 264 260 257 259 261 263 263 264 267 269 272 274 276 277 278 280 281 283 284 284 285 286 287 288 289 290 291 291 292 292 292 292 292 294 295 295
287 288 285 284 279 271 264 265 267 268 269 269 268 267 267 268 269 271 273 276 278 278 279 280 281 283 284 286 287 287 288 289 290 291 291 291 292 292 292 292 292 295 296 297
282 283 281 279 276 274 272 270 271 272 273 273 273 273 274 275 276 277 278 279 280 281 283 284 284 285 285 286 289 290 290 289 290 290 291 291 291 292 292 293 294 295 298 300
275 274 273 275 273 270 268 269 270 270 270 271 271 272 274 276 277 278 279 279 279 280 281 282 284 286 286 287 288 289 290 290 288 288 289 291 293 293 294 295 297 297 300 302
271 273 273 272 272 271 271 270 270 271 271 272 272 272 273 275 276 276 278 278 278 279 281 283 284 286 286 286 287 287 288 288 287 290 290 292 292 293 293 296 300 302 302 302
272 272 274 274 271 271 271 271 271 271 273 276 277 276 275 275 276 279 281 280 279 281 282 285 285 285 285 285 286 287 288 287 287 288 288 290 293 295 296 299 302 301 302 302
272 271 272 273 272 272 272 272 273 273 273 275 276 278 278 280 280 281 283 280 279 280 283 284 286 287 287 289 288 288 289 290 290 290 291 293 296 299 300 302 302 303 303 303
Height
10515 10534 10556 10574 10591 10601 10617 10629 10645 10659 10675 10685 10694 10702 10709 10716 10723 10729 10733 10737 10741 10743 10746 10748 10750 10751 10751 10752 10751 10749 10749 10748 10747 10745 10743 10740 10738 10736 10733 10730 10726 10721 10717 10712
10505 10526 10539 10559 10579 10598 10615 10627 10641 10653 10667 10676 10684 10696 10700 10709 10715 10722 10726 10730 10732 10736 10737 10741 10742 10742 10742 10742 10742 10741 10740 10739 10737 10735 10733 10731 10728 10725 10721 10717 10713 10709 10705 10700
10496 10515 10535 10553 10567 10587 10606 10618 10631 10649 10656 10668 10679 10684 10694 10703 10709 10715 10719 10722 10725 10727 10730 10732 10733 10733 10733 10733 10732 10732 10730 10729 10727 10725 10723 10720 10716 10713 10709 10705 10701 10696 10692 10686
10490 10508 10528 10545 10561 10581 10597 10610 10626 10643 10647 10662 10670 10683 10687 10696 10702 10709 10713 10715 10717 10719 10721 10722 10723 10724 10724 10723 10722 10721 10720 10718 10716 10714 10711 10708 10704 10700 10696 10692 10687 10683 10677 10671
10484 10500 10520 10538 10557 10575 10589 10606 10623 10630 10640 10654 10665 10674 10681 10694 10699 10702 10704 10707 10709 10710 10712 10713 10715 10714 10715 10714 10713 10712 10710 10707 10704 10702 10699 10695 10691 10687 10683 10677 10673 10667 10662 10655
10480 10497 10517 10537 10553 10569 10587 10601 10614 10624 10634 10647 10657 10670 10674 10687 10689 10692 10695 10698 10698 10700 10702 10703 10704 10705 10705 10704 10703 10701 10698 10695 10692 10689 10685 10681 10677 10672 10667 10662 10657 10651 10645 10638
10476 10491 10511 10530 10548 10564 10579 10593 10607 10618 10631 10649 10657 10663 10672 10682 10681 10685 10685 10687 10690 10691 10693 10694 10695 10695 10694 10693 10691 10688 10686 10682 10679 10675 10671 10666 10662 10657 10652 10646 10640 10634 10627 10620
10475 10488 10504 10525 10546 10564 10578 10592 10606 10620 10634 10645 10651 10660 10668 10670 10670 10673 10675 10679 10681 10682 10683 10685 10686 10685 10683 10681 10678 10675 10672 10668 10665 10660 10656 10651 10647 10641 10635 10629 10622 10616 10610 10604
10478 10489 10503 10521 10541 10559 10575 10590 10603 10616 10628 10637 10644 10651 10654 10657 10659 10663 10666 10669 10671 10673 10675 10675 10675 10673 10671 10668 10664 10661 10658 10654 10650 10646 10641 10636 10630 10624 10618 10611 10604 10598 10592 10585
10485 10494 10506 10521 10540 10558 10574 10586 10600 10612 10622 10631 10638 10642 10646 10649 10651 10654 10658 10661 10663 10665 10665 10664 10662 10660 10656 10653 10650 10647 10643 10639 10635 10630 10625 10619 10612 10605 10599 10593 10586 10579 10572 10566
10496 10502 10512 10525 10542 10558 10573 10586 10598 10609 10617 10625 10630 10635 10637 10642 10643 10646 10649 10652 10654 10655 10654 10652 10648 10645 10642 10639 10636 10632 10628 10623 10618 10612 10607 10600 10593 10587 10580 10572 10566 10559 10553 10546
10508 10514 10520 10531 10545 10560 10573 10584 10595 10605 10613 10619 10623 10631 10630 10633 10637 10640 10643 10644 10644 10643 10640 10636 10633 10630 10628 10625 10621 10616 10612 10606 10601 10594 10587 10581 10574 10566 10559 10553 10545 10538 10532 10525
10520 10523 10529 10538 10550 10563 10575 10585 10593 10602 10609 10614 10620 10623 10623 10626 10630 10632 10634 10633 10632 10628 10625 10622 10619 10617 10613 10609 10605 10600 10594 10587 10580 10575 10568 10561 10554 10548 10540 10532 10525 10517 10510 10503
10533 10534 10538 10546 10556 10568 10579 10587 10594 10602 10607 10607 10613 10614 10615 10620 10622 10622 10621 10619 10616 10613 10611 10609 10606 10602 10598 10593 10587 10581 10575 10570 10563 10557 10550 10542 10535 10527 10519 10512 10504 10496 10487 10478
10546 10546 10549 10555 10562 10571 10580 10587 10593 10597 10599 10605 10600 10605 10610 10609 10611 10610 10607 10605 10602 10600 10597 10595 10591 10585 10580 10575 10570 10564 10558 10552 10545 10539 10530 10522 10513 10506 10498 10489 10480 10470 10461 10451
10558 10557 10559 10563 10569 10576 10582 10585 10589 10593 10595 10595 10598 10595 10600 10600 10599 10596 10593 10590 10587 10585 10582 10577 10573 10568 10563 10558 10553 10547 10540 10533 10526 10519 10510 10501 10492 10483 10473 10463 10452 10441 10430 10420
10567 10567 10567 10568 10571 10575 10579 10584 10586 10587 10586 10587 10587 10585 10584 10586 10583 10581 10579 10575 10572 10568 10564 10561 10557 10553 10547 10542 10536 10528 10521 10514 10506 10498 10489 10479 10470 10459 10447 10436 10423 10411 10400 10389
10570 10570 10571 10572 10572 10573 10576 10576 10577 10577 10578 10578 10577 10574 10572 10571 10569 10566 10563 10560 10558 10555 10550 10545 10540 10535 10529 10522 10515 10508 10501 10494 10485 10476 10466 10455 10443 10431 10418 10406 10393 10380 10368 10355
10566 10567 10568 10569 10571 10570 10570 10568 10568 10568 10568 10565 10563 10560 10559 10556 10553 10550 10546 10543 10540 10536 10531 10526 10520 10514 10509 10503 10495 10487 10480 10471 10463 10451 10439 10426 10413 10402 10389 10375 10363 10348 10335 10323
10560 10560 10560 10561 10563 10562 10559 10557 10557 10558 10559 10551 10551 10549 10545 10541 10539 10534 10531 10528 10523 10518 10513 10507 10501 10495 10490 10482 10474 10465 10456 10447 10435 10424 10411 10397 10384 10371 10358 10344 10330 10316 10301 10290
10550 10551 10550 10551 10552 10552 10547 10546 10544 10542 10541 10538 10535 10532 10528 10524 10521 10517 10513 10509 10504 10498 10492 10485 10480 10475 10467 10458 10449 10440 10430 10420 10408 10396 10381 10367 10351 10338 10324 10313 10296 10282 10267 10256
10538 10538 10537 10537 10537 10538 10534 10533 10532 10531 10528 10524 10519 10515 10511 10507 10503 10498 10494 10489 10484 10477 10470 10463 10456 10450 10442 10434 10425 10415 10404 10392 10379 10365 10351 10336 10321 10306 10291 10278 10265 10249 10233 10220
10525 10522 10522 10520 10519 10519 10519 10518 10516 10513 10510 10506 10502 10498 10493 10489 10484 10479 10474 10468 10462 10455 10447 10439 10432 10426 10418 10407 10398 10388 10376 10364 10350 10335 10320 10306 10292 10275 10259 10244 10230 10217 10200 10185
10510 10505 10502 10500 10500 10500 10500 10499 10496 10494 10490 10486 10482 10478 10473 10468 10463 10457 10451 10445 10438 10431 10424 10415 10406 10397 10389 10379 10369 10359 10348 10335 10320 10305 10289 10274 10260 10245 10227 10214 10198 10183 10162 10148
10489 10483 10476 10481 10476 10479 10478 10476 10474 10471 10467 10463 10459 10454 10449 10444 10438 10432 10425 10420 10412 10405 10396 10388 10379 10368 10359 10349 10339 10328 10316 10302 10287 10272 10258 10242 10227 10214 10204 10187 10168 10149 10124 10109
10466 10453 10456 10455 10453 10455 10455 10449 10447 10444 10441 10436 10432 10426 10420 10414 10409 10403 10397 10390 10384 10376 10368 10358 10349 10339 10330 10320 10307 10296 10283 10269 10253 10236 10222 10210 10195 10184 10170 10156 10139 10112 10093 10078